SCP
0 -0 0 0 0 0 0 0 0 0 0 0 -0 0 0 0 0 0 -0 0 0 0 0 -0 -0 -0 -0 -0 -0 0 0 0 0 0 0 0 0 0 0 0 0 0 0 0 0 0 0 0 0
-0 -0 0 0 0 0 0 0 0 0 0 0 0 0 0 0 0 -0 0 0 0 0 0 0 -0 -0 -0 -0 -0 -0 0 0 0 0 0 0 0 0 0 0 0 0 0 0 0 0 0 0 0
-0 -0 0 0 0 0 0 0 0 0 0 0 0 0 0 0 0 -0 -0 0 0 0 0 0 -0 -0 -0 -0 -0 -0 0 0 0 -0 0 0 0 0 0 0 0 0 0 0 0 0 0 0 0
0 0 0 0 0 0 0 0 0 0 0 0 0 0 0 0 0 -0 0 0 0 0 0 0 -0 -0 -0 -0 -0 0 0 0 0 0 0 0 0 0 0 0 0 0 0 0 0 0 0 0 0
0 0 0 0 0 0 0 0 0 0 0 0 0 0 0 0 0 0 -0 0 0 0 0 0 -0 -0 -0 -0 -0 -0 0 0 0 0 0 0 0 0 0 0 0 0 0 0 0 0 0 0 0
0 0 0 0 0 0 0 0 0 0 0 -0 0 0 0 0 0 0 0 0 0 0 0 0 -0 -0 -0 -0 -0 -0 -0 0 0 0 0 0 0 0 0 0 0 0 0 0 0 0 0 0 0
0 0 0 0 0 0 0 0 0 0 0 -0 0 0 -0 -0 -0 0 0 0 0 0 0 0 0 0 0 0 0 0 -0 0 0 0 0 0 0 0 0 0 0 0 0 0 0 0 0 0 0
0 0 0 0 0 0 0 0 0 0 0 0 0 0 0 -0 0 0 0 0 0 0 0 0 0 0 0 0 0 0 0 0 0 0 0 0 0 0 0 0 0 0 0 0 0 0 0 0 0
0 0 0 0 0 0 0 0 0 0 0 0 0 0 0 0 0 0 0 0 0 0 0 0 0 0 0 0 0 0 0 0 0 0 0 0 0 0 0 0 0 0 0 0 0 0 0 0 0
0 0 0 0 0 0 0 0 0 0 0 0 0 0 0 0 0 0 0 0 0 0 0 0 0 0 0 0 0 0 0 0 0 0 0 0 0 0 0 0 0 0 0 0 0 0 0 0 0
0 0 0 0 -0 0 0 0 0 0 0 0 0 0 0 0 0 0 0 0 0 0 0 0 0 0 0 0 0 0 0 0 0 0 0 0 0 0 0 0 0 0 0 0 0 0 0 0 0
0 0 0 0 0 0 0 0 -0 0 0 0 0 0 0 0 0 0 0 0 0 0 0 0 0 0 0 0 0 0 0 0 0 0 0 0 0 0 0 0 0 0 0 0 0 0 0 0 0
0 0 0 0 0 -0 0 -0 -0 -0 0 0 0 0 0 0 0 0 0 0 0 0 0 0 0 0 0 0 0 0 0 0 0 0 0 0 0 0 0 0 0 0 0 0 0 0 0 0 0
0 0 0 0 0 -0 0 0 -0 -0 0 0 0 0 0 0 0 0 0 0 0 0 0 0 0 0 0 0 0 0 0 0 0 0 0 0 0 0 0 0 0 0 0 0 0 0 0 0 0
0 0 0 0 0 0 0 0 -0 0 0 0 0 0 0 0 0 0 0 0 0 0 0 0 0 0 0 0 0 0 0 0 0 0 0 0 0 0 0 0 0 0 0 0 0 0 0 0 0
0 0 0 0 0 0 0 0 0 0 0 0 0 0 0 0 0 0 0 0 0 0 0 0 0 0 0 0 0 0 0 0 0 0 0 0 0 0 0 0 0 0 0 0 0 0 0 0 0
0 0 0 0 0 0 0 0 0 0 0 0 0 0 0 0 0 0 0 0 0 0 0 0 0 0 0 0 0 0 0 0 0 0 0 0 0 0 0 0 0 0 0 0 0 0 0 0 0
0 0 0 0 0 0 0 0 0 0 0 0 0 0 0 0 0 0 0 0 0 0 0 0 0 0 0 0 0 0 0 0 0 0 0 0 0 0 0 0 0 0 0 0 0 0 0 0 0
0 0 0 0 0 -0 0 0 0 0 -0 0 0 0 0 0 0 0 0 0 0 0 0 0 0 0 0 0 0 0 0 0 0 0 0 0 0 0 0 0 0 0 0 0 0 0 0 0 0
0 0 0 0 0 0 0 0 0 0 0 0 0 0 0 0 0 0 0 0 0 0 0 0 0 0 0 0 0 0 0 0 0 0 0 0 0 0 0 0 0 0 0 0 0 0 0 0 0
0 0 0 0 0 0 0 -0 0 0 0 0 0 0 0 0 0 0 0 0 0 0 0 0 0 0 0 0 0 0 0 0 0 0 0 0 0 0 0 0 0 0 0 0 0 0 0 0 0
0 0 0 0 0 0 0 0 0 0 0 0 0 0 0 0 0 0 0 0 0 0 0 0 0 0 0 0 0 0 0 0 0 0 0 0 0 0 0 0 0 0 0 0 0 0 0 0 0
0 0 0 0 0 0 0 0 -0 0 0 0 0 0 0 0 0 0 0 0 0 0 0 0 0 0 0 0 0 0 0 0 0 0 0 0 0 0 0 0 0 0 0 0 0 0 0 0 0
0 0 0 0 0 0 0 0 0 0 0 0 0 0 0 0 0 0 0 0 0 0 0 0 0 0 0 0 0 0 0 0 0 0 0 0 0 0 0 0 0 0 0 0 0 0 0 0 0
0 0 0 0 0 0 0 0 0 0 0 0 0 0 0 0 0 0 0 0 0 0 0 0 0 0 0 0 0 0 0 0 0 0 0 0 0 0 0 0 0 0 0 0 0 0 0 0 0
0 0 0 0 0 0 0 0 0 0 0 0 0 0 0 0 0 0 0 0 0 0 0 0 0 0 0 0 0 0 0 0 0 0 0 0 0 0 0 0 0 0 0 0 0 0 0 0 0
0 0 0 0 0 0 0 0 0 0 0 0 0 0 0 0 0 0 0 0 0 0 0 0 0 0 0 0 0 0 0 0 0 0 0 0 0 0 0 0 0 0 0 0 0 0 0 0 0
0 0 0 0 0 0 0 0 0 0 0 0 0 0 0 0 0 0 0 0 0 0 0 0 0 0 0 0 0 0 0 0 0 0 0 0 0 0 0 0 0 0 0 0 0 0 0 0 0
0 0 0 0 0 0 0 0 0 0 0 0 0 0 0 0 0 0 0 0 0 0 0 0 0 0 0 0 0 0 0 0 0 0 0 0 0 0 0 0 0 0 0 0 0 0 0 0 0
0 0 0 0 0 0 0 0 0 0 0 0 0 0 0 0 0 0 0 0 0 0 0 0 0 0 0 0 0 0 0 0 0 0 0 0 0 0 0 0 0 0 0 0 0 0 0 0 0
Wind_Speed_500mb
33 37 24 4 6 8 4 8 5 13 7 7 11 8 3 1 4 7 7 5 6 4 6 18 27 26 26 24 19 18 16 14 11 10 7 6 11 10 10 13 7 9 10 7 10 13 17 11 11
33 32 8 2 7 5 8 7 5 8 17 18 3 6 4 6 4 10 8 9 6 5 5 13 25 27 31 26 19 17 16 16 13 16 10 13 13 7 12 10 18 11 11 13 14 13 17 20 14
31 21 6 7 5 8 9 7 11 18 35 11 7 7 5 5 6 9 10 10 6 4 5 11 21 29 32 22 18 18 16 16 14 16 12 15 14 16 16 14 17 19 18 11 10 16 20 20 21
22 7 7 7 6 9 7 14 13 17 22 16 7 9 7 9 3 8 13 9 5 3 5 8 17 24 25 21 18 16 15 12 17 9 13 16 18 14 18 17 11 10 14 12 9 17 17 12 26
16 6 7 5 8 9 10 19 30 14 12 13 13 9 8 10 11 9 9 8 4 3 6 5 11 18 19 19 20 17 17 16 20 15 21 20 21 18 25 16 14 14 14 13 14 14 20 23 21
7 4 7 5 9 11 14 15 29 11 8 10 7 3 9 12 13 9 8 6 4 4 6 5 8 13 17 20 21 18 16 16 21 25 23 27 19 29 30 28 22 17 14 15 16 17 19 23 24
6 6 6 7 8 11 7 43 18 16 10 5 7 4 11 17 17 12 9 11 10 8 7 7 9 13 18 22 24 22 21 20 21 18 20 25 29 32 28 28 24 20 16 17 19 21 23 25 26
1 8 3 7 5 11 9 41 26 29 8 17 5 9 10 10 19 16 13 18 18 14 10 9 10 14 17 19 22 22 24 23 21 20 19 16 25 31 27 25 22 21 19 19 21 24 25 27 28
6 5 6 9 7 10 18 16 20 31 19 28 9 14 16 12 25 22 22 25 25 22 15 14 13 15 16 16 19 21 22 21 20 20 18 18 18 19 20 20 20 21 22 24 27 30 30 32 31
10 7 13 11 7 9 29 22 44 17 35 13 14 15 21 18 30 30 27 27 29 24 20 19 18 17 18 17 16 18 19 20 20 20 20 20 19 19 20 18 18 20 20 23 26 30 33 35 34
11 11 9 15 30 25 14 32 26 12 12 24 21 36 35 25 36 35 32 32 35 26 26 26 24 22 24 22 18 18 18 20 19 20 20 20 21 20 20 19 20 22 24 26 28 31 33 35 36
5 22 28 16 31 18 15 33 21 35 46 34 34 39 38 34 39 38 37 36 39 37 33 32 32 31 30 29 27 22 23 22 21 20 22 24 24 24 23 23 24 27 29 32 33 35 36 38 39
7 13 23 38 44 37 35 29 25 41 50 49 31 42 36 35 39 35 37 37 40 44 41 41 38 39 36 38 36 31 27 26 25 26 28 28 29 30 32 34 35 36 38 39 41 42 43 45 44
11 26 33 35 54 27 16 30 14 20 36 45 49 39 31 32 39 40 40 41 41 42 42 42 44 43 41 42 41 41 34 29 30 32 30 31 34 37 40 43 45 47 47 46 50 52 54 55 55
10 7 14 24 34 17 6 19 19 59 39 43 47 38 30 30 32 38 35 36 37 35 35 38 42 43 43 41 40 42 41 37 36 36 34 35 40 43 45 49 53 54 56 58 59 62 64 66 65
7 4 5 9 5 11 21 24 24 47 33 35 19 16 16 19 20 28 28 29 36 38 41 40 42 44 43 42 40 38 41 42 41 41 41 41 45 48 52 55 58 59 61 63 65 68 72 75 76
2 6 8 17 9 2 8 14 24 17 14 34 10 8 8 7 6 1 9 16 22 26 31 35 41 43 39 42 43 41 41 42 41 43 44 46 49 52 55 58 60 62 64 67 70 72 75 79 82
10 6 11 11 8 2 7 23 28 25 15 19 9 19 16 13 12 10 10 10 15 19 22 21 20 28 34 39 43 45 45 44 43 44 47 51 51 52 55 59 60 60 63 66 68 69 70 73 77
8 8 6 10 12 9 17 21 28 21 23 13 25 24 21 19 20 20 22 23 23 23 16 13 15 16 17 24 39 46 49 49 49 50 53 54 52 52 56 59 59 56 60 61 65 68 69 69 68
7 3 11 16 8 9 6 18 19 8 10 18 31 26 21 24 22 25 26 28 31 32 30 25 21 19 16 8 11 27 38 42 40 42 41 38 42 48 52 53 55 56 60 60 60 63 69 72 60
10 9 8 13 17 6 9 14 11 4 4 16 18 21 23 23 25 28 28 32 32 34 35 34 31 26 23 21 14 8 13 18 23 27 28 30 32 34 37 39 42 45 48 54 55 55 59 70 69
18 16 7 13 8 7 6 10 11 8 8 9 17 25 26 24 23 27 29 32 33 35 31 29 27 27 28 23 17 15 14 13 17 19 21 20 20 22 25 28 32 35 37 41 43 44 50 58 67
16 12 13 9 7 5 4 4 12 5 14 15 17 26 27 26 23 27 28 28 28 25 24 23 22 24 26 26 26 24 23 22 18 15 16 17 18 22 25 29 32 36 38 40 43 45 47 49 59
3 8 10 6 5 5 15 15 10 10 20 9 12 29 32 31 26 25 24 22 21 18 16 17 20 22 21 20 20 20 19 19 18 21 26 31 34 37 39 41 43 44 46 48 48 48 49 52 54
9 10 2 4 3 11 2 5 18 10 13 23 26 42 37 31 26 24 21 17 14 12 13 14 16 16 18 20 21 23 24 25 28 32 37 43 47 50 52 52 53 54 55 57 60 60 58 56 57
14 15 10 11 7 8 8 12 11 10 19 34 58 53 40 33 27 23 18 13 8 6 7 10 14 16 19 22 25 26 26 28 32 36 40 44 46 49 52 56 58 61 62 63 63 64 63 64 64
10 8 10 5 1 2 7 14 7 10 9 23 48 52 45 36 29 23 19 13 7 4 3 8 11 15 19 25 26 27 30 35 40 43 45 49 53 58 62 65 69 70 71 69 68 67 67 65 64
12 13 6 4 6 8 9 10 10 5 6 9 19 46 47 37 29 24 20 16 11 6 3 4 7 15 23 26 28 31 34 38 43 49 55 58 61 64 67 68 68 68 68 68 66 66 66 62 59
5 5 8 7 8 7 4 11 9 8 16 21 21 54 50 37 30 25 24 20 15 12 9 8 11 18 24 27 31 36 42 48 52 56 59 60 61 63 65 66 68 68 68 67 67 66 63 55 63
5 13 12 9 8 3 6 11 7 11 13 23 36 42 32 25 27 29 26 23 20 18 14 12 14 21 26 30 36 44 49 54 55 54 56 59 63 64 65 66 67 67 68 67 66 67 61 68 76
Wind_Direction_500mb
336 333 329 288 62 65 268 263 258 292 304 319 312 237 214 44 162 225 330 255 292 283 201 186 190 194 203 215 228 248 262 273 280 175 194 224 271 229 230 199 213 212 255 212 172 203 199 212 217
335 336 330 68 96 89 265 254 255 254 284 307 266 294 355 289 289 301 310 296 283 276 221 191 189 193 207 222 235 249 270 267 256 197 166 225 267 227 233 234 216 213 226 238 211 184 208 215 194
332 330 338 86 96 172 216 242 266 286 305 277 299 273 246 261 298 301 309 313 259 255 212 191 193 198 217 240 244 258 258 268 211 161 205 233 249 262 252 251 261 244 246 279 220 195 223 212 204
337 319 43 85 246 251 231 265 281 311 305 245 255 272 267 239 270 283 314 300 252 229 196 193 205 215 222 240 250 260 263 245 197 184 200 225 245 252 248 272 289 281 265 271 266 233 240 250 232
335 2 39 350 268 265 278 294 325 275 271 225 203 250 247 238 244 277 292 280 274 236 203 200 212 221 231 246 251 264 262 257 210 198 209 223 247 240 257 288 287 279 273 276 279 271 261 261 267
342 50 44 281 264 299 285 314 317 284 293 294 190 187 247 210 224 249 274 250 252 252 235 222 216 235 254 261 258 267 278 271 230 216 216 220 223 235 261 291 288 277 265 279 278 280 278 273 271
113 78 218 253 279 291 247 341 344 318 273 261 216 209 273 223 207 221 247 233 236 231 248 258 253 260 266 266 260 266 280 279 265 238 238 230 231 247 262 274 280 283 280 288 284 283 280 276 274
156 92 234 247 243 272 304 342 333 339 340 345 247 235 283 296 211 212 232 233 235 235 248 264 270 274 281 270 259 267 278 283 273 243 257 253 244 254 267 277 281 285 289 291 290 288 284 280 273
174 74 241 253 207 261 318 358 324 333 306 322 270 282 286 288 214 222 229 231 235 237 243 246 263 270 278 270 263 265 273 276 270 261 263 261 265 274 277 285 276 285 291 293 291 288 286 283 281
160 155 226 217 230 261 304 312 310 316 322 318 293 308 304 263 224 232 239 241 244 243 253 248 255 264 266 267 266 266 267 267 265 260 262 264 270 276 277 281 279 286 295 298 296 295 294 287 285
183 206 221 254 261 288 290 301 307 279 289 288 282 312 321 260 228 238 248 250 256 259 254 254 257 261 261 265 270 265 263 257 257 254 259 265 268 272 280 284 288 292 297 302 301 299 301 299 290
193 249 243 271 280 297 272 291 279 262 266 291 289 305 288 266 245 254 259 257 256 261 260 259 260 261 264 264 262 266 258 261 261 262 260 264 268 270 276 284 287 290 294 297 298 300 297 296 293
219 263 266 269 279 279 283 264 258 269 276 282 278 303 292 263 264 268 263 264 263 265 267 267 267 267 267 267 264 264 264 266 270 270 264 264 270 273 274 277 281 286 291 293 298 300 299 296 295
216 246 268 277 280 271 261 278 276 264 278 280 286 287 286 265 263 264 265 268 272 276 275 270 269 270 267 268 269 269 268 272 270 269 273 274 278 281 282 285 287 289 292 294 296 297 295 293 290
246 286 303 259 268 247 233 290 242 271 283 292 277 270 279 278 271 270 278 277 282 280 278 271 269 267 268 273 276 275 276 271 272 276 278 281 283 286 289 290 289 291 294 296 296 295 294 292 292
177 109 285 280 287 271 173 268 278 278 275 304 333 271 274 278 273 271 275 280 284 281 274 270 265 266 269 270 277 281 282 281 281 282 285 285 286 289 292 294 297 300 298 298 296 296 293 292 291
33 211 230 307 233 221 188 271 268 260 275 315 345 119 119 124 115 336 297 291 288 292 291 283 267 260 264 271 274 280 283 281 285 288 291 294 292 293 295 299 303 302 299 297 296 294 293 293 293
193 179 256 244 292 16 280 261 271 281 307 311 146 144 134 109 73 42 13 346 330 318 313 319 308 273 265 261 263 268 273 276 280 287 291 294 297 299 299 300 303 302 299 297 297 296 295 293 292
176 179 232 257 249 225 234 254 267 292 292 183 160 148 129 107 88 81 73 63 54 46 28 352 351 341 326 289 271 270 273 276 280 286 291 295 295 295 296 296 297 299 297 298 299 299 298 297 298
184 209 269 293 323 186 272 261 267 279 236 201 167 151 136 117 106 91 82 75 67 62 58 54 41 27 20 1 281 269 274 278 287 291 296 294 290 291 292 293 295 296 296 296 297 299 300 298 301
221 201 239 229 318 293 330 293 260 235 162 172 164 144 133 122 110 101 91 79 73 63 54 47 40 32 25 24 21 330 292 292 292 297 301 304 305 302 300 299 300 301 302 299 300 303 302 299 297
226 198 216 268 309 250 27 282 291 218 186 196 161 150 141 129 114 105 97 88 76 67 58 49 44 42 43 36 25 22 25 19 15 353 344 334 323 320 319 318 317 316 319 316 309 305 305 305 303
222 154 202 228 223 357 295 326 263 148 224 213 199 167 147 135 129 115 104 92 80 71 61 55 47 48 46 43 46 47 50 50 39 25 7 2 354 341 335 333 331 328 327 324 319 314 310 303 300
105 94 52 63 70 291 225 177 262 200 215 175 185 178 155 148 139 124 110 99 86 77 60 42 32 40 39 35 37 33 28 20 2 353 344 338 332 328 325 322 321 319 317 316 315 311 307 306 304
104 108 344 329 313 228 161 157 259 243 228 185 177 178 165 157 149 139 130 114 99 73 50 38 33 39 35 24 17 13 7 357 350 345 340 334 330 327 324 323 321 320 318 314 312 310 308 304 301
172 161 164 203 208 257 105 234 250 276 291 194 179 170 164 163 160 150 140 131 116 80 51 31 21 20 16 8 4 358 351 348 344 340 336 332 326 323 320 318 318 318 317 316 313 311 309 308 306
184 172 175 77 43 13 233 289 284 358 39 143 156 167 172 171 170 159 150 162 162 147 48 356 356 359 356 356 352 348 345 339 337 332 327 324 322 322 321 320 321 321 321 321 319 317 315 314 316
147 164 91 32 245 248 281 281 250 326 191 149 153 175 181 182 169 163 167 186 197 218 246 286 329 343 346 342 340 339 334 331 329 326 323 322 321 322 323 324 324 325 325 325 325 324 322 321 317
102 141 64 130 150 201 296 271 224 262 199 187 181 185 188 185 176 174 191 200 207 208 217 263 305 326 333 335 335 333 330 328 327 326 325 325 326 328 328 327 326 326 325 325 325 326 327 324 315
149 170 157 141 221 211 160 276 330 296 186 173 191 193 195 192 185 195 202 198 197 214 235 267 310 326 329 333 335 334 331 326 324 326 328 330 329 329 329 329 328 328 328 326 325 325 326 317 321
Wind_Speed_850mb
33 37 24 4 6 8 4 8 5 13 7 7 11 8 3 1 4 7 7 5 6 4 6 18 27 26 26 24 19 18 16 14 11 10 7 6 11 10 10 13 7 9 10 7 10 13 17 11 11
33 32 8 2 7 5 8 7 5 8 17 18 3 6 4 6 4 10 8 9 6 5 5 13 25 27 31 26 19 17 16 16 13 16 10 13 13 7 12 10 18 11 11 13 14 13 17 20 14
31 21 6 7 5 8 9 7 11 18 35 11 7 7 5 5 6 9 10 10 6 4 5 11 21 29 32 22 18 18 16 16 14 16 12 15 14 16 16 14 17 19 18 11 10 16 20 20 21
22 7 7 7 6 9 7 14 13 17 22 16 7 9 7 9 3 8 13 9 5 3 5 8 17 24 25 21 18 16 15 12 17 9 13 16 18 14 18 17 11 10 14 12 9 17 17 12 26
16 6 7 5 8 9 10 19 30 14 12 13 13 9 8 10 11 9 9 8 4 3 6 5 11 18 19 19 20 17 17 16 20 15 21 20 21 18 25 16 14 14 14 13 14 14 20 23 21
7 4 7 5 9 11 14 15 29 11 8 10 7 3 9 12 13 9 8 6 4 4 6 5 8 13 17 20 21 18 16 16 21 25 23 27 19 29 30 28 22 17 14 15 16 17 19 23 24
6 6 6 7 8 11 7 43 18 16 10 5 7 4 11 17 17 12 9 11 10 8 7 7 9 13 18 22 24 22 21 20 21 18 20 25 29 32 28 28 24 20 16 17 19 21 23 25 26
1 8 3 7 5 11 9 41 26 29 8 17 5 9 10 10 19 16 13 18 18 14 10 9 10 14 17 19 22 22 24 23 21 20 19 16 25 31 27 25 22 21 19 19 21 24 25 27 28
6 5 6 9 7 10 18 16 20 31 19 28 9 14 16 12 25 22 22 25 25 22 15 14 13 15 16 16 19 21 22 21 20 20 18 18 18 19 20 20 20 21 22 24 27 30 30 32 31
10 7 13 11 7 9 29 22 44 17 35 13 14 15 21 18 30 30 27 27 29 24 20 19 18 17 18 17 16 18 19 20 20 20 20 20 19 19 20 18 18 20 20 23 26 30 33 35 34
11 11 9 15 30 25 14 32 26 12 12 24 21 36 35 25 36 35 32 32 35 26 26 26 24 22 24 22 18 18 18 20 19 20 20 20 21 20 20 19 20 22 24 26 28 31 33 35 36
5 22 28 16 31 18 15 33 21 35 46 34 34 39 38 34 39 38 37 36 39 37 33 32 32 31 30 29 27 22 23 22 21 20 22 24 24 24 23 23 24 27 29 32 33 35 36 38 39
7 13 23 38 44 37 35 29 25 41 50 49 31 42 36 35 39 35 37 37 40 44 41 41 38 39 36 38 36 31 27 26 25 26 28 28 29 30 32 34 35 36 38 39 41 42 43 45 44
11 26 33 35 54 27 16 30 14 20 36 45 49 39 31 32 39 40 40 41 41 42 42 42 44 43 41 42 41 41 34 29 30 32 30 31 34 37 40 43 45 47 47 46 50 52 54 55 55
10 7 14 24 34 17 6 19 19 59 39 43 47 38 30 30 32 38 35 36 37 35 35 38 42 43 43 41 40 42 41 37 36 36 34 35 40 43 45 49 53 54 56 58 59 62 64 66 65
7 4 5 9 5 11 21 24 24 47 33 35 19 16 16 19 20 28 28 29 36 38 41 40 42 44 43 42 40 38 41 42 41 41 41 41 45 48 52 55 58 59 61 63 65 68 72 75 76
2 6 8 17 9 2 8 14 24 17 14 34 10 8 8 7 6 1 9 16 22 26 31 35 41 43 39 42 43 41 41 42 41 43 44 46 49 52 55 58 60 62 64 67 70 72 75 79 82
10 6 11 11 8 2 7 23 28 25 15 19 9 19 16 13 12 10 10 10 15 19 22 21 20 28 34 39 43 45 45 44 43 44 47 51 51 52 55 59 60 60 63 66 68 69 70 73 77
8 8 6 10 12 9 17 21 28 21 23 13 25 24 21 19 20 20 22 23 23 23 16 13 15 16 17 24 39 46 49 49 49 50 53 54 52 52 56 59 59 56 60 61 65 68 69 69 68
7 3 11 16 8 9 6 18 19 8 10 18 31 26 21 24 22 25 26 28 31 32 30 25 21 19 16 8 11 27 38 42 40 42 41 38 42 48 52 53 55 56 60 60 60 63 69 72 60
10 9 8 13 17 6 9 14 11 4 4 16 18 21 23 23 25 28 28 32 32 34 35 34 31 26 23 21 14 8 13 18 23 27 28 30 32 34 37 39 42 45 48 54 55 55 59 70 69
18 16 7 13 8 7 6 10 11 8 8 9 17 25 26 24 23 27 29 32 33 35 31 29 27 27 28 23 17 15 14 13 17 19 21 20 20 22 25 28 32 35 37 41 43 44 50 58 67
16 12 13 9 7 5 4 4 12 5 14 15 17 26 27 26 23 27 28 28 28 25 24 23 22 24 26 26 26 24 23 22 18 15 16 17 18 22 25 29 32 36 38 40 43 45 47 49 59
3 8 10 6 5 5 15 15 10 10 20 9 12 29 32 31 26 25 24 22 21 18 16 17 20 22 21 20 20 20 19 19 18 21 26 31 34 37 39 41 43 44 46 48 48 48 49 52 54
9 10 2 4 3 11 2 5 18 10 13 23 26 42 37 31 26 24 21 17 14 12 13 14 16 16 18 20 21 23 24 25 28 32 37 43 47 50 52 52 53 54 55 57 60 60 58 56 57
14 15 10 11 7 8 8 12 11 10 19 34 58 53 40 33 27 23 18 13 8 6 7 10 14 16 19 22 25 26 26 28 32 36 40 44 46 49 52 56 58 61 62 63 63 64 63 64 64
10 8 10 5 1 2 7 14 7 10 9 23 48 52 45 36 29 23 19 13 7 4 3 8 11 15 19 25 26 27 30 35 40 43 45 49 53 58 62 65 69 70 71 69 68 67 67 65 64
12 13 6 4 6 8 9 10 10 5 6 9 19 46 47 37 29 24 20 16 11 6 3 4 7 15 23 26 28 31 34 38 43 49 55 58 61 64 67 68 68 68 68 68 66 66 66 62 59
5 5 8 7 8 7 4 11 9 8 16 21 21 54 50 37 30 25 24 20 15 12 9 8 11 18 24 27 31 36 42 48 52 56 59 60 61 63 65 66 68 68 68 67 67 66 63 55 63
5 13 12 9 8 3 6 11 7 11 13 23 36 42 32 25 27 29 26 23 20 18 14 12 14 21 26 30 36 44 49 54 55 54 56 59 63 64 65 66 67 67 68 67 66 67 61 68 76
Wind_Direction_850mb
336 333 329 288 62 65 268 263 258 292 304 319 312 237 214 44 162 225 330 255 292 283 201 186 190 194 203 215 228 248 262 273 280 175 194 224 271 229 230 199 213 212 255 212 172 203 199 212 217
335 336 330 68 96 89 265 254 255 254 284 307 266 294 355 289 289 301 310 296 283 276 221 191 189 193 207 222 235 249 270 267 256 197 166 225 267 227 233 234 216 213 226 238 211 184 208 215 194
332 330 338 86 96 172 216 242 266 286 305 277 299 273 246 261 298 301 309 313 259 255 212 191 193 198 217 240 244 258 258 268 211 161 205 233 249 262 252 251 261 244 246 279 220 195 223 212 204
337 319 43 85 246 251 231 265 281 311 305 245 255 272 267 239 270 283 314 300 252 229 196 193 205 215 222 240 250 260 263 245 197 184 200 225 245 252 248 272 289 281 265 271 266 233 240 250 232
335 2 39 350 268 265 278 294 325 275 271 225 203 250 247 238 244 277 292 280 274 236 203 200 212 221 231 246 251 264 262 257 210 198 209 223 247 240 257 288 287 279 273 276 279 271 261 261 267
342 50 44 281 264 299 285 314 317 284 293 294 190 187 247 210 224 249 274 250 252 252 235 222 216 235 254 261 258 267 278 271 230 216 216 220 223 235 261 291 288 277 265 279 278 280 278 273 271
113 78 218 253 279 291 247 341 344 318 273 261 216 209 273 223 207 221 247 233 236 231 248 258 253 260 266 266 260 266 280 279 265 238 238 230 231 247 262 274 280 283 280 288 284 283 280 276 274
156 92 234 247 243 272 304 342 333 339 340 345 247 235 283 296 211 212 232 233 235 235 248 264 270 274 281 270 259 267 278 283 273 243 257 253 244 254 267 277 281 285 289 291 290 288 284 280 273
174 74 241 253 207 261 318 358 324 333 306 322 270 282 286 288 214 222 229 231 235 237 243 246 263 270 278 270 263 265 273 276 270 261 263 261 265 274 277 285 276 285 291 293 291 288 286 283 281
160 155 226 217 230 261 304 312 310 316 322 318 293 308 304 263 224 232 239 241 244 243 253 248 255 264 266 267 266 266 267 267 265 260 262 264 270 276 277 281 279 286 295 298 296 295 294 287 285
183 206 221 254 261 288 290 301 307 279 289 288 282 312 321 260 228 238 248 250 256 259 254 254 257 261 261 265 270 265 263 257 257 254 259 265 268 272 280 284 288 292 297 302 301 299 301 299 290
193 249 243 271 280 297 272 291 279 262 266 291 289 305 288 266 245 254 259 257 256 261 260 259 260 261 264 264 262 266 258 261 261 262 260 264 268 270 276 284 287 290 294 297 298 300 297 296 293
219 263 266 269 279 279 283 264 258 269 276 282 278 303 292 263 264 268 263 264 263 265 267 267 267 267 267 267 264 264 264 266 270 270 264 264 270 273 274 277 281 286 291 293 298 300 299 296 295
216 246 268 277 280 271 261 278 276 264 278 280 286 287 286 265 263 264 265 268 272 276 275 270 269 270 267 268 269 269 268 272 270 269 273 274 278 281 282 285 287 289 292 294 296 297 295 293 290
246 286 303 259 268 247 233 290 242 271 283 292 277 270 279 278 271 270 278 277 282 280 278 271 269 267 268 273 276 275 276 271 272 276 278 281 283 286 289 290 289 291 294 296 296 295 294 292 292
177 109 285 280 287 271 173 268 278 278 275 304 333 271 274 278 273 271 275 280 284 281 274 270 265 266 269 270 277 281 282 281 281 282 285 285 286 289 292 294 297 300 298 298 296 296 293 292 291
33 211 230 307 233 221 188 271 268 260 275 315 345 119 119 124 115 336 297 291 288 292 291 283 267 260 264 271 274 280 283 281 285 288 291 294 292 293 295 299 303 302 299 297 296 294 293 293 293
193 179 256 244 292 16 280 261 271 281 307 311 146 144 134 109 73 42 13 346 330 318 313 319 308 273 265 261 263 268 273 276 280 287 291 294 297 299 299 300 303 302 299 297 297 296 295 293 292
176 179 232 257 249 225 234 254 267 292 292 183 160 148 129 107 88 81 73 63 54 46 28 352 351 341 326 289 271 270 273 276 280 286 291 295 295 295 296 296 297 299 297 298 299 299 298 297 298
184 209 269 293 323 186 272 261 267 279 236 201 167 151 136 117 106 91 82 75 67 62 58 54 41 27 20 1 281 269 274 278 287 291 296 294 290 291 292 293 295 296 296 296 297 299 300 298 301
221 201 239 229 318 293 330 293 260 235 162 172 164 144 133 122 110 101 91 79 73 63 54 47 40 32 25 24 21 330 292 292 292 297 301 304 305 302 300 299 300 301 302 299 300 303 302 299 297
226 198 216 268 309 250 27 282 291 218 186 196 161 150 141 129 114 105 97 88 76 67 58 49 44 42 43 36 25 22 25 19 15 353 344 334 323 320 319 318 317 316 319 316 309 305 305 305 303
222 154 202 228 223 357 295 326 263 148 224 213 199 167 147 135 129 115 104 92 80 71 61 55 47 48 46 43 46 47 50 50 39 25 7 2 354 341 335 333 331 328 327 324 319 314 310 303 300
105 94 52 63 70 291 225 177 262 200 215 175 185 178 155 148 139 124 110 99 86 77 60 42 32 40 39 35 37 33 28 20 2 353 344 338 332 328 325 322 321 319 317 316 315 311 307 306 304
104 108 344 329 313 228 161 157 259 243 228 185 177 178 165 157 149 139 130 114 99 73 50 38 33 39 35 24 17 13 7 357 350 345 340 334 330 327 324 323 321 320 318 314 312 310 308 304 301
172 161 164 203 208 257 105 234 250 276 291 194 179 170 164 163 160 150 140 131 116 80 51 31 21 20 16 8 4 358 351 348 344 340 336 332 326 323 320 318 318 318 317 316 313 311 309 308 306
184 172 175 77 43 13 233 289 284 358 39 143 156 167 172 171 170 159 150 162 162 147 48 356 356 359 356 356 352 348 345 339 337 332 327 324 322 322 321 320 321 321 321 321 319 317 315 314 316
147 164 91 32 245 248 281 281 250 326 191 149 153 175 181 182 169 163 167 186 197 218 246 286 329 343 346 342 340 339 334 331 329 326 323 322 321 322 323 324 324 325 325 325 325 324 322 321 317
102 141 64 130 150 201 296 271 224 262 199 187 181 185 188 185 176 174 191 200 207 208 217 263 305 326 333 335 335 333 330 328 327 326 325 325 326 328 328 327 326 326 325 325 325 326 327 324 315
149 170 157 141 221 211 160 276 330 296 186 173 191 193 195 192 185 195 202 198 197 214 235 267 310 326 329 333 335 334 331 326 324 326 328 330 329 329 329 329 328 328 328 326 325 325 326 317 321